Time[GMT],dominant_wave_period[s](0m),mean_wave_direction[degrees](0m),max_wave_height[m](0m),significant_wave_height[m](0m),mean_wave_direction_spread[degrees](0m)
2017-04-21 14:00,5.0,94.40,1.41,0.86,33.00
2017-04-21 15:00,4.4,94.40,1.30,0.83,34.00
2017-04-21 16:00,5.1,98.40,1.22,0.89,33.00
2017-04-21 17:00,4.5,100.40,1.13,0.84,34.00
2017-04-21 18:00,4.8,98.40,1.44,0.92,32.00
2017-04-21 19:00,4.8,96.40,1.59,0.91,37.00
2017-04-21 20:00,4.3,99.40,1.25,0.94,36.00
2017-04-21 21:00,28.6,92.40,1.67,0.88,40.00
2017-04-21 22:00,5.0,98.40,1.42,0.91,34.00
2017-04-21 23:00,5.0,96.40,1.52,0.83,36.00
2017-04-22 00:00,4.9,96.40,1.32,0.89,34.00
2017-04-22 01:00,5.1,94.40,1.50,0.86,33.00
2017-04-22 02:00,4.9,98.40,1.23,0.86,35.00
2017-04-22 03:00,5.0,100.40,1.38,0.88,33.00
2017-04-22 04:00,4.9,100.40,1.49,0.91,32.00
2017-04-22 05:00,4.9,100.40,1.63,0.91,31.00
2017-04-22 06:00,4.5,99.40,1.49,0.92,34.00
2017-04-22 07:00,4.7,104.40,1.51,0.85,35.00
2017-04-22 08:00,4.7,103.40,1.68,0.88,33.00
2017-04-22 09:00,4.8,108.40,1.31,0.83,32.00
2017-04-22 10:00,5.0,107.40,1.24,0.78,35.00
2017-04-22 11:00,4.8,102.40,1.50,0.83,34.00
2017-04-22 12:00,5.0,103.40,1.35,0.84,33.00
2017-04-22 13:00,4.8,101.40,1.50,0.91,32.00
2017-04-22 14:00,4.9,104.40,1.61,0.82,33.00
2017-04-22 15:00,4.3,99.40,1.41,0.80,36.00
2017-04-22 16:00,5.4,104.40,1.27,0.83,34.00
2017-04-22 17:00,5.0,105.40,1.49,0.85,34.00
2017-04-22 18:00,4.7,102.40,1.50,0.90,34.00
2017-04-22 19:00,5.1,107.40,1.30,0.91,33.00
2017-04-22 20:00,4.8,106.40,1.39,0.84,35.00
2017-04-22 21:00,28.6,101.40,1.39,0.86,39.00
2017-04-22 22:00,4.5,104.40,1.79,0.87,37.00
2017-04-22 23:00,5.1,103.40,1.52,0.87,37.00
2017-04-23 00:00,4.8,101.40,1.52,0.87,36.00
2017-04-23 01:00,5.3,103.40,2.04,0.94,33.00
2017-04-23 02:00,4.7,102.40,1.67,0.93,33.00
2017-04-23 03:00,4.9,102.40,1.72,1.00,32.00
2017-04-23 04:00,5.3,102.40,1.73,1.03,33.00
2017-04-23 05:00,5.6,104.40,1.68,1.06,34.00
2017-04-23 06:00,5.3,109.40,1.70,1.06,35.00
2017-04-23 07:00,5.6,108.40,1.98,1.15,35.00
2017-04-23 08:00,5.3,109.40,2.11,1.18,34.00
2017-04-23 09:00,5.3,109.40,2.05,1.19,37.00
2017-04-23 10:00,5.6,109.40,1.99,1.24,35.00
2017-04-23 11:00,5.6,109.40,2.11,1.21,34.00
2017-04-23 12:00,5.7,109.40,2.07,1.20,35.00
2017-04-23 13:00,5.9,108.40,2.16,1.23,32.00
2017-04-23 14:00,5.7,113.40,2.18,1.29,31.00
2017-04-23 15:00,5.7,105.40,2.39,1.30,35.00
2017-04-23 16:00,5.7,110.40,2.15,1.19,34.00
2017-04-23 17:00,5.7,110.40,1.92,1.32,34.00
2017-04-23 18:00,6.3,114.40,2.10,1.23,33.00
2017-04-23 19:00,5.7,111.40,1.96,1.28,33.00
2017-04-23 20:00,5.7,108.40,2.48,1.28,34.00
2017-04-23 21:00,5.7,111.40,2.46,1.43,32.00
2017-04-23 22:00,5.7,110.40,2.25,1.30,32.00
2017-04-23 23:00,6.1,108.40,2.33,1.49,31.00
2017-04-24 00:00,6.3,107.40,2.89,1.60,32.00
2017-04-24 01:00,6.5,103.40,2.33,1.43,33.00
2017-04-24 02:00,6.1,103.40,2.54,1.52,32.00
2017-04-24 03:00,6.3,101.40,2.42,1.59,33.00
2017-04-24 04:00,6.5,107.40,2.28,1.41,35.00
2017-04-24 05:00,6.5,106.40,2.39,1.46,34.00
2017-04-24 06:00,6.3,104.40,2.75,1.75,29.00
2017-04-24 07:00,6.3,109.40,2.54,1.55,34.00
2017-04-24 08:00,6.3,107.40,2.77,1.79,32.00
2017-04-24 09:00,6.5,109.40,2.86,1.63,31.00
2017-04-24 10:00,6.7,109.40,2.81,1.64,32.00
2017-04-24 11:00,6.7,114.40,3.29,1.58,31.00
2017-04-24 12:00,6.1,111.40,2.76,1.66,30.00
2017-04-24 13:00,6.3,110.40,2.66,1.64,31.00
2017-04-24 14:00,6.1,110.40,2.62,1.42,32.00
2017-04-24 15:00,6.1,113.40,2.09,1.41,36.00
2017-04-24 16:00,5.9,107.40,2.90,1.42,32.00
2017-04-24 17:00,6.1,113.40,2.31,1.43,33.00
2017-04-24 18:00,5.9,105.40,2.12,1.38,33.00
2017-04-24 19:00,6.5,107.40,2.29,1.39,32.00
2017-04-24 20:00,6.1,102.40,2.10,1.35,37.00
2017-04-24 21:00,6.3,108.40,3.26,1.52,31.00
2017-04-24 22:00,6.1,105.40,2.34,1.35,33.00
2017-04-24 23:00,6.3,111.40,2.26,1.40,34.00
2017-04-25 00:00,6.1,109.40,2.23,1.47,34.00
2017-04-25 01:00,6.3,109.40,2.21,1.44,37.00
2017-04-25 02:00,6.1,106.40,2.19,1.36,34.00
2017-04-25 03:00,6.3,107.40,2.07,1.42,33.00
2017-04-25 04:00,6.3,108.40,2.48,1.39,32.00
2017-04-25 05:00,6.1,109.40,1.98,1.31,34.00
2017-04-25 06:00,5.9,106.40,1.99,1.33,33.00
2017-04-25 07:00,6.3,106.40,2.37,1.50,29.00
2017-04-25 08:00,6.5,107.40,2.00,1.40,34.00
2017-04-25 09:00,5.9,104.40,2.62,1.20,37.00
2017-04-25 10:00,6.3,113.40,1.84,1.24,37.00
2017-04-25 11:00,6.3,108.40,2.14,1.39,33.00
2017-04-25 12:00,6.1,108.40,2.25,1.37,34.00
2017-04-25 13:00,6.5,108.40,2.01,1.37,34.00
2017-04-25 14:00,6.3,109.40,2.10,1.33,34.00
2017-04-25 15:00,6.1,109.40,2.15,1.36,35.00
2017-04-25 16:00,6.5,111.40,2.26,1.26,33.00
2017-04-25 17:00,6.7,108.40,1.98,1.27,34.00
2017-04-25 18:00,6.3,107.40,2.17,1.39,36.00
2017-04-25 19:00,6.3,108.40,2.44,1.44,33.00
2017-04-25 20:00,6.5,110.40,1.97,1.36,35.00
2017-04-25 21:00,6.3,113.40,2.43,1.25,33.00
2017-04-25 22:00,6.5,113.40,1.97,1.27,35.00
2017-04-25 23:00,6.3,113.40,1.86,1.21,35.00
2017-04-26 00:00,6.5,113.40,2.16,1.25,33.00
2017-04-26 01:00,6.5,114.40,2.07,1.17,34.00
2017-04-26 02:00,6.7,113.40,1.68,1.04,35.00
2017-04-26 03:00,6.7,110.40,1.92,1.17,33.00
2017-04-26 04:00,6.3,109.40,1.97,1.24,34.00
2017-04-26 05:00,6.5,108.40,2.15,1.19,36.00
2017-04-26 06:00,6.3,114.40,1.75,1.19,35.00
2017-04-26 07:00,6.3,109.40,1.68,1.06,35.00
2017-04-26 08:00,6.1,112.40,2.02,1.23,32.00
2017-04-26 09:00,6.3,110.40,1.88,1.15,37.00
2017-04-26 10:00,5.9,114.40,2.05,1.18,34.00
2017-04-26 11:00,6.5,114.40,1.81,1.21,35.00
2017-04-26 12:00,6.1,116.40,1.98,1.13,35.00
2017-04-26 13:00,5.7,119.40,1.72,1.16,35.00
2017-04-26 14:00,5.7,116.40,1.87,1.13,37.00
2017-04-26 15:00,5.6,116.40,1.97,1.21,32.00
2017-04-26 16:00,5.7,117.40,1.71,1.09,33.00
2017-04-26 17:00,5.7,115.40,1.84,0.99,37.00
2017-04-26 18:00,6.1,112.40,1.99,1.11,34.00
2017-04-26 19:00,6.1,110.40,2.08,1.15,33.00
2017-04-26 20:00,5.7,114.40,1.67,1.11,34.00
2017-04-26 21:00,6.1,110.40,1.84,1.09,32.00
2017-04-26 22:00,5.6,113.40,1.80,1.06,33.00
2017-04-26 23:00,5.3,109.40,1.52,0.99,36.00
2017-04-27 00:00,6.1,111.40,2.22,0.98,34.00
2017-04-27 01:00,6.1,109.40,1.92,1.03,33.00
2017-04-27 02:00,5.7,117.40,1.86,1.04,31.00
2017-04-27 03:00,5.4,106.40,1.52,1.00,33.00
2017-04-27 04:00,5.6,107.40,1.74,1.05,32.00
2017-04-27 05:00,5.7,108.40,1.52,1.03,35.00
2017-04-27 06:00,5.6,106.40,1.72,1.08,34.00
2017-04-27 07:00,5.7,106.40,1.79,1.07,35.00
2017-04-27 08:00,5.1,102.40,1.50,1.03,35.00
2017-04-27 09:00,5.7,104.40,1.66,1.07,33.00
2017-04-27 10:00,4.5,104.40,1.69,1.09,33.00
2017-04-27 11:00,5.1,103.40,2.09,1.17,32.00
2017-04-27 12:00,5.3,109.40,1.91,1.10,34.00
2017-04-27 13:00,5.4,104.40,2.06,1.08,34.00
2017-04-27 14:00,5.7,108.40,2.05,1.12,32.00
2017-04-27 15:00,5.7,112.40,1.82,1.13,32.00
2017-04-27 16:00,5.7,109.40,1.82,1.12,33.00
2017-04-27 17:00,6.1,108.40,1.80,1.05,32.00
2017-04-27 18:00,5.7,107.40,1.72,1.03,37.00
2017-04-27 19:00,5.7,109.40,1.50,1.04,35.00
2017-04-27 20:00,5.6,103.40,1.86,1.12,33.00
2017-04-27 21:00,5.7,100.40,1.69,1.08,34.00
2017-04-27 22:00,5.6,102.40,1.54,1.03,35.00
2017-04-27 23:00,5.7,102.40,1.59,1.07,34.00
2017-04-28 00:00,5.7,98.40,2.03,1.21,30.00
2017-04-28 01:00,5.1,99.40,2.05,1.16,34.00
2017-04-28 02:00,5.7,99.40,1.68,1.16,33.00
2017-04-28 03:00,5.6,99.40,1.89,1.39,28.00
2017-04-28 04:00,5.4,100.40,2.01,1.27,30.00
2017-04-28 05:00,6.3,100.40,2.16,1.33,31.00
2017-04-28 06:00,6.1,103.40,2.57,1.28,32.00
2017-04-28 07:00,5.6,104.40,2.20,1.33,30.00
2017-04-28 08:00,5.9,101.40,2.26,1.27,31.00
2017-04-28 09:00,6.1,103.40,1.97,1.29,31.00
2017-04-28 10:00,6.3,98.40,2.14,1.34,28.00
2017-04-28 11:00,6.3,105.40,2.80,1.45,30.00
2017-04-28 12:00,5.7,103.40,2.14,1.36,31.00
2017-04-28 13:00,6.1,104.40,2.09,1.30,31.00
2017-04-28 14:00,6.1,108.40,2.09,1.31,31.00
2017-04-28 15:00,5.9,108.40,2.13,1.34,30.00
2017-04-28 16:00,6.5,108.40,2.21,1.35,32.00
2017-04-28 17:00,6.3,119.40,2.35,1.51,30.00
2017-04-28 18:00,6.3,114.40,2.59,1.37,34.00
2017-04-28 19:00,6.3,111.40,2.33,1.26,33.00
2017-04-28 20:00,5.9,106.40,2.11,1.22,34.00
2017-04-28 21:00,6.1,108.40,2.14,1.24,34.00
2017-04-28 22:00,6.3,105.40,2.80,1.28,35.00
2017-04-28 23:00,6.7,101.40,2.13,1.30,32.00
2017-04-29 00:00,5.7,101.40,2.24,1.36,32.00
2017-04-29 01:00,6.3,107.40,2.13,1.28,32.00
2017-04-29 02:00,6.5,109.40,2.28,1.44,30.00
2017-04-29 03:00,6.1,106.40,2.16,1.37,33.00
2017-04-29 04:00,6.1,105.40,2.31,1.46,32.00
2017-04-29 05:00,6.3,103.40,2.83,1.50,30.00
2017-04-29 06:00,6.3,104.40,2.29,1.42,32.00
2017-04-29 07:00,6.5,100.40,2.23,1.46,31.00
2017-04-29 08:00,5.9,101.40,2.18,1.44,33.00
2017-04-29 09:00,6.3,99.40,2.26,1.54,30.00
2017-04-29 10:00,6.1,99.40,2.69,1.53,30.00
2017-04-29 11:00,6.4,352.55,2.35,,5.38
2017-04-29 12:00,5.6,102.40,3.09,1.59,30.00
2017-04-29 13:00,5.6,102.40,2.65,1.51,30.00
2017-04-29 14:00,5.7,99.40,2.21,1.47,34.00
2017-04-29 15:00,5.9,100.40,2.38,1.47,33.00
2017-04-29 16:00,5.9,100.40,2.15,1.54,30.00
2017-04-29 17:00,5.9,101.40,2.56,1.50,31.00
2017-04-29 18:00,6.1,102.40,2.78,1.52,30.00
2017-04-29 19:00,6.9,99.40,2.67,1.53,29.00
2017-04-29 20:00,6.5,100.40,2.13,1.46,30.00
2017-04-29 21:00,6.5,102.40,2.23,1.50,32.00
2017-04-29 22:00,6.3,99.40,2.37,1.51,30.00
2017-04-29 23:00,6.7,101.40,2.53,1.44,32.00
2017-04-30 00:00,7.1,101.40,2.27,1.38,32.00
2017-04-30 01:00,5.9,102.40,2.42,1.38,31.00
2017-04-30 02:00,5.7,102.40,2.43,1.42,31.00
2017-04-30 03:00,5.6,97.40,2.37,1.41,32.00
2017-04-30 04:00,6.3,100.40,2.32,1.44,32.00
2017-04-30 05:00,5.9,103.40,2.13,1.35,30.00
2017-04-30 06:00,5.9,101.40,2.67,1.54,30.00
2017-04-30 07:00,6.1,101.40,2.18,1.44,31.00
2017-04-30 08:00,6.3,98.40,2.43,1.52,30.00
2017-04-30 09:00,6.9,99.40,2.29,1.31,35.00
2017-04-30 10:00,7.4,98.40,2.18,1.46,31.00
2017-04-30 11:00,5.7,96.40,2.73,1.44,30.00
2017-04-30 12:00,6.7,98.40,2.45,1.54,30.00
2017-04-30 13:00,5.4,98.40,2.61,1.57,31.00
2017-04-30 14:00,5.9,97.40,3.12,1.59,31.00
2017-04-30 15:00,7.1,97.40,2.34,1.58,33.00
2017-04-30 16:00,6.1,101.40,2.37,1.44,34.00
2017-04-30 17:00,6.1,102.40,2.61,1.58,32.00
2017-04-30 18:00,5.7,106.40,2.43,1.51,34.00
2017-04-30 19:00,6.3,104.40,2.09,1.36,32.00
2017-04-30 20:00,6.5,102.40,2.01,1.40,32.00
2017-04-30 21:00,7.7,99.40,2.38,1.37,32.00
2017-04-30 22:00,6.1,105.40,2.05,1.30,32.00
2017-04-30 23:00,7.4,100.40,2.34,1.38,31.00
2017-05-01 00:00,6.3,97.40,2.22,1.41,32.00
2017-05-01 01:00,5.7,97.40,2.21,1.46,30.00
2017-05-01 02:00,5.9,97.40,2.16,1.39,32.00
2017-05-01 03:00,6.3,98.40,2.07,1.49,31.00
2017-05-01 04:00,5.7,98.40,2.51,1.56,32.00
2017-05-01 05:00,5.9,102.40,1.87,1.35,30.00
2017-05-01 06:00,6.3,102.40,2.13,1.48,31.00
2017-05-01 07:00,5.7,98.40,2.65,1.42,29.00
2017-05-01 08:00,6.3,107.40,2.32,1.40,33.00
2017-05-01 09:00,5.9,101.40,2.23,1.36,33.00
2017-05-01 10:00,6.1,96.40,2.16,1.27,34.00
2017-05-01 11:00,6.7,98.40,2.17,1.34,32.00
2017-05-01 12:00,5.4,94.40,2.76,1.43,33.00
2017-05-01 13:00,6.1,99.40,2.61,1.57,30.00
2017-05-01 14:00,6.3,96.40,2.41,1.51,32.00
2017-05-01 15:00,5.9,98.40,3.18,1.59,34.00
2017-05-01 16:00,5.6,100.40,2.24,1.58,31.00
2017-05-01 17:00,5.9,100.40,2.29,1.54,32.00
2017-05-01 18:00,5.4,100.40,2.49,1.54,30.00
2017-05-01 19:00,5.7,99.40,2.37,1.52,32.00
2017-05-01 20:00,6.1,103.40,2.06,1.39,33.00
2017-05-01 21:00,6.3,102.40,1.90,1.37,35.00
2017-05-01 22:00,8.0,99.40,2.30,1.37,32.00
2017-05-01 23:00,6.7,101.40,2.20,1.36,35.00
2017-05-02 00:00,6.7,96.40,2.37,1.39,31.00
2017-05-02 01:00,7.1,93.40,2.34,1.39,32.00
2017-05-02 02:00,6.5,92.40,2.78,1.52,28.00
2017-05-02 03:00,6.1,97.40,2.53,1.62,30.00
2017-05-02 04:00,5.3,97.40,2.73,1.44,31.00
2017-05-02 05:00,6.1,96.40,2.62,1.53,31.00
2017-05-02 06:00,6.3,95.40,2.70,1.55,30.00
2017-05-02 07:00,6.3,97.40,2.24,1.40,31.00
2017-05-02 08:00,5.7,96.40,2.71,1.50,29.00
2017-05-02 09:00,6.9,95.40,2.39,1.50,29.00
2017-05-02 10:00,7.4,95.40,2.26,1.42,30.00
2017-05-02 11:00,6.1,93.40,2.44,1.47,31.00
2017-05-02 12:00,6.5,94.40,2.39,1.50,30.00
2017-05-02 13:00,7.4,91.40,2.26,1.40,32.00
2017-05-02 14:00,5.7,92.40,2.19,1.47,30.00
2017-05-02 15:00,5.9,96.40,2.24,1.43,29.00
2017-05-02 16:00,6.1,96.40,2.78,1.45,31.00
2017-05-02 17:00,6.7,99.40,2.07,1.37,30.00
2017-05-02 18:00,6.3,100.40,2.36,1.32,34.00
2017-05-02 19:00,6.1,98.40,2.03,1.36,30.00
2017-05-02 20:00,6.3,98.40,2.07,1.29,30.00
2017-05-02 21:00,6.1,98.40,2.17,1.32,31.00
2017-05-02 22:00,6.9,102.40,1.95,1.20,32.00
2017-05-02 23:00,6.7,98.40,2.12,1.21,31.00
2017-05-03 00:00,5.9,98.40,1.92,1.26,31.00
2017-05-03 01:00,6.7,97.40,2.33,1.21,32.00
2017-05-03 02:00,7.4,96.40,2.13,1.29,30.00
2017-05-03 03:00,5.1,98.40,1.88,1.18,32.00
2017-05-03 04:00,7.1,95.40,2.07,1.19,34.00
2017-05-03 05:00,6.9,94.40,1.83,1.24,30.00
2017-05-03 06:00,7.1,95.40,2.34,1.15,33.00
2017-05-03 07:00,7.4,99.40,1.95,1.20,30.00
2017-05-03 08:00,6.1,97.40,1.59,1.10,32.00
2017-05-03 09:00,5.4,99.40,1.62,1.09,31.00
2017-05-03 10:00,7.4,96.40,1.62,1.02,32.00
2017-05-03 11:00,6.1,99.40,1.85,1.02,33.00
2017-05-03 12:00,7.1,98.40,1.84,0.98,34.00
2017-05-03 13:00,7.4,98.40,1.65,0.97,33.00
2017-05-03 14:00,7.4,99.40,1.51,0.96,33.00
2017-05-03 15:00,6.7,96.40,1.77,0.98,32.00
2017-05-03 16:00,7.7,99.40,1.55,0.97,34.00
2017-05-03 17:00,6.9,98.40,1.54,0.96,32.00
2017-05-03 18:00,7.4,95.40,1.69,1.01,32.00
2017-05-03 19:00,6.7,97.40,1.29,0.91,35.00
2017-05-03 20:00,7.7,96.40,1.37,0.96,33.00
2017-05-03 21:00,7.4,97.40,1.62,0.98,31.00
2017-05-03 22:00,7.7,100.40,1.49,1.06,38.00
2017-05-03 23:00,7.7,96.40,1.80,1.07,33.00
2017-05-04 00:00,6.5,93.40,1.64,1.04,34.00
2017-05-04 01:00,5.0,98.40,1.73,1.09,32.00
2017-05-04 02:00,8.0,97.40,1.89,1.08,33.00
2017-05-04 03:00,4.8,103.40,1.78,1.08,34.00
2017-05-04 04:00,5.4,99.40,1.62,1.09,33.00
2017-05-04 05:00,4.8,97.40,1.67,1.06,32.00
2017-05-04 06:00,5.1,95.40,1.79,1.08,33.00
2017-05-04 07:00,4.4,99.40,1.64,1.12,33.00
2017-05-04 08:00,5.3,100.40,2.09,1.15,30.00
2017-05-04 09:00,5.9,98.40,2.02,1.12,29.00
2017-05-04 10:00,5.6,102.40,2.23,1.07,30.00
2017-05-04 11:00,5.6,102.40,2.45,1.09,32.00
2017-05-04 12:00,5.4,99.40,1.89,1.10,29.00
2017-05-04 13:00,5.1,101.40,2.00,1.09,34.00
2017-05-04 14:00,5.6,98.40,1.78,1.12,32.00
2017-05-04 15:00,5.3,99.40,1.98,1.12,33.00
2017-05-04 16:00,5.7,101.40,1.92,1.14,30.00
2017-05-04 17:00,5.7,102.40,1.92,1.17,31.00
2017-05-04 18:00,5.9,102.40,2.09,1.11,33.00
2017-05-04 19:00,5.4,103.40,1.79,1.08,33.00
2017-05-04 20:00,5.4,106.40,1.91,1.09,31.00
2017-05-04 21:00,5.7,107.40,1.83,1.16,31.00
2017-05-04 22:00,5.9,103.40,1.74,1.07,36.00
2017-05-04 23:00,5.6,106.40,2.08,1.06,32.00
2017-05-05 00:00,5.9,106.40,1.89,1.10,31.00
2017-05-05 01:00,5.6,103.40,1.61,1.11,31.00
2017-05-05 02:00,5.6,105.40,1.94,1.04,35.00
2017-05-05 03:00,5.3,102.40,1.71,1.07,35.00
2017-05-05 04:00,5.0,101.40,1.97,1.16,32.00
2017-05-05 05:00,5.0,102.40,1.90,1.22,33.00
2017-05-05 06:00,5.7,102.40,1.97,1.09,33.00
2017-05-05 07:00,5.3,106.40,2.07,1.17,33.00
2017-05-05 08:00,5.0,103.40,1.67,1.04,32.00
2017-05-05 09:00,5.3,108.40,1.56,1.10,32.00
2017-05-05 10:00,5.9,105.40,1.87,1.08,34.00
2017-05-05 11:00,5.4,103.40,1.79,1.11,32.00
2017-05-05 12:00,5.4,108.40,1.85,1.09,31.00
2017-05-05 13:00,5.6,103.40,1.97,1.18,32.00
2017-05-05 14:00,5.9,108.40,2.03,1.08,35.00
2017-05-05 15:00,5.9,103.40,2.07,1.15,32.00
2017-05-05 16:00,5.4,106.40,1.59,1.06,33.00
2017-05-05 17:00,5.6,107.40,2.02,1.14,34.00
2017-05-05 18:00,5.6,108.40,1.85,1.10,33.00
2017-05-05 19:00,5.6,106.40,2.14,1.12,32.00
2017-05-05 20:00,5.6,104.40,1.79,1.17,33.00
2017-05-05 21:00,5.6,107.40,1.86,1.15,36.00
2017-05-05 22:00,5.4,101.40,1.79,1.17,32.00
2017-05-05 23:00,5.6,103.40,1.91,1.19,35.00
2017-05-06 00:00,5.6,100.40,1.75,1.12,33.00
2017-05-06 01:00,5.9,99.40,2.07,1.18,33.00
2017-05-06 02:00,5.9,103.40,1.78,1.13,34.00
2017-05-06 03:00,5.6,100.40,1.96,1.16,33.00
2017-05-06 04:00,5.7,102.40,1.98,1.20,33.00
2017-05-06 05:00,5.9,104.40,1.82,1.19,34.00
2017-05-06 06:00,5.3,104.40,2.05,1.21,32.00
2017-05-06 07:00,5.1,105.40,1.64,1.08,32.00
2017-05-06 08:00,5.4,106.40,1.65,1.15,31.00
2017-05-06 09:00,5.4,109.40,1.79,1.13,32.00
2017-05-06 10:00,5.6,101.40,1.74,1.07,34.00
2017-05-06 11:00,5.1,106.40,2.19,1.16,31.00
2017-05-06 12:00,5.6,108.40,2.13,1.14,32.00
2017-05-06 13:00,5.3,111.40,1.74,1.20,32.00
2017-05-06 14:00,5.6,112.40,1.84,1.20,33.00
2017-05-06 15:00,6.1,108.40,1.93,1.20,33.00
2017-05-06 16:00,5.9,111.40,1.91,1.21,35.00
2017-05-06 17:00,5.9,107.40,2.12,1.29,30.00
2017-05-06 18:00,5.1,109.40,2.09,1.18,33.00
2017-05-06 19:00,5.3,107.40,1.83,1.12,35.00
2017-05-06 20:00,5.6,109.40,2.25,1.20,35.00
2017-05-06 21:00,5.9,107.40,1.97,1.19,33.00
2017-05-06 22:00,5.7,108.40,1.67,1.10,35.00
2017-05-06 23:00,5.9,109.40,1.79,1.13,36.00
2017-05-07 00:00,6.3,108.40,1.76,1.16,32.00
2017-05-07 01:00,5.7,107.40,1.66,1.08,36.00
2017-05-07 02:00,5.6,107.40,1.82,1.11,31.00
2017-05-07 03:00,5.7,108.40,1.91,1.15,31.00
2017-05-07 04:00,5.4,104.40,1.85,1.23,30.00
2017-05-07 05:00,5.6,102.40,2.07,1.17,33.00
2017-05-07 06:00,5.7,104.40,1.98,1.20,32.00
2017-05-07 07:00,5.6,105.40,1.92,1.22,32.00
2017-05-07 08:00,5.1,102.40,2.10,1.18,35.00
2017-05-07 09:00,5.6,103.40,2.03,1.25,31.00
2017-05-07 10:00,5.6,107.40,2.14,1.17,33.00
2017-05-07 11:00,5.6,101.40,1.96,1.29,33.00
2017-05-07 12:00,5.7,103.40,2.42,1.26,31.00
2017-05-07 13:00,6.7,98.40,1.98,1.22,32.00
2017-05-07 14:00,5.6,99.40,2.19,1.28,30.00
2017-05-07 15:00,5.7,101.40,1.86,1.24,32.00
2017-05-07 16:00,6.1,104.40,1.97,1.19,32.00
2017-05-07 17:00,5.6,103.40,1.87,1.24,34.00
2017-05-07 18:00,5.7,106.40,2.05,1.20,31.00
2017-05-07 19:00,5.6,107.40,1.90,1.16,31.00
2017-05-07 20:00,5.4,110.40,1.87,1.07,33.00
2017-05-07 21:00,5.6,104.40,1.53,1.02,32.00
2017-05-07 22:00,5.9,106.40,1.51,1.04,35.00
2017-05-07 23:00,5.3,104.40,1.77,1.08,32.00
2017-05-08 00:00,6.5,100.40,1.51,1.02,33.00
2017-05-08 01:00,5.6,99.40,1.79,1.02,33.00
2017-05-08 02:00,7.4,100.40,1.73,1.04,33.00
2017-05-08 03:00,4.9,99.40,1.70,1.11,33.00
2017-05-08 04:00,4.8,97.40,1.58,1.08,33.00
2017-05-08 05:00,5.4,97.40,1.87,1.12,31.00
2017-05-08 06:00,5.0,95.40,2.21,1.21,32.00
2017-05-08 07:00,5.6,96.40,1.89,1.20,33.00
2017-05-08 08:00,5.6,101.40,2.02,1.19,33.00
2017-05-08 09:00,5.3,98.40,1.94,1.22,31.00
2017-05-08 10:00,5.3,102.40,1.83,1.17,32.00
2017-05-08 11:00,5.6,105.40,2.01,1.18,30.00
2017-05-08 12:00,5.7,103.40,1.83,1.10,31.00
2017-05-08 13:00,6.1,106.40,1.74,1.16,30.00
2017-05-08 14:00,5.7,101.40,1.92,1.04,33.00
2017-05-08 15:00,6.3,104.40,1.74,1.01,33.00
2017-05-08 16:00,6.9,103.40,1.59,1.02,32.00
2017-05-08 17:00,6.7,106.40,2.06,1.07,32.00
2017-05-08 18:00,5.9,105.40,1.92,1.11,32.00
2017-05-08 19:00,5.7,103.40,1.80,1.18,31.00
2017-05-08 20:00,6.3,102.40,1.65,1.12,31.00
2017-05-08 21:00,7.1,100.40,1.82,1.20,30.00
2017-05-08 22:00,7.4,101.40,2.05,1.17,31.00
2017-05-08 23:00,7.7,100.40,1.97,1.24,29.00
2017-05-09 00:00,7.7,98.40,2.21,1.09,32.00
2017-05-09 01:00,7.7,102.40,1.83,1.21,32.00
2017-05-09 02:00,6.1,103.40,2.15,1.11,30.00
2017-05-09 03:00,7.4,100.40,2.12,1.20,29.00
2017-05-09 04:00,7.7,100.40,2.01,1.17,31.00
2017-05-09 05:00,6.1,104.40,1.89,1.11,32.00
2017-05-09 06:00,6.3,101.40,2.03,1.19,29.00
2017-05-09 07:00,6.3,107.40,1.99,1.23,30.00
2017-05-09 08:00,5.9,106.40,1.95,1.16,31.00
2017-05-09 09:00,7.7,104.40,1.81,1.13,32.00
2017-05-09 10:00,7.4,106.40,2.02,1.25,29.00
2017-05-09 11:00,6.1,106.40,1.83,1.20,32.00
2017-05-09 12:00,7.4,108.40,2.07,1.17,31.00
2017-05-09 13:00,6.9,109.40,2.06,1.14,33.00
2017-05-09 14:00,5.6,108.40,1.98,1.21,31.00
2017-05-09 15:00,6.1,112.40,1.91,1.18,32.00
2017-05-09 16:00,7.7,112.40,2.23,1.12,32.00
2017-05-09 17:00,5.9,107.40,1.72,1.14,32.00
2017-05-09 18:00,5.9,116.40,1.90,1.22,33.00
2017-05-09 19:00,4.7,115.40,2.26,1.39,32.00
2017-05-09 20:00,5.9,116.40,2.29,1.48,31.00
2017-05-09 21:00,5.4,118.40,2.09,1.40,30.00
2017-05-09 22:00,5.7,117.40,1.64,1.22,33.00
2017-05-09 23:00,5.9,115.40,1.91,1.14,34.00
2017-05-10 00:00,7.4,114.40,1.60,1.10,34.00
2017-05-10 01:00,6.1,110.40,1.83,1.13,33.00
2017-05-10 02:00,5.6,110.40,2.04,1.16,32.00
2017-05-10 03:00,6.3,109.40,2.07,1.23,32.00
2017-05-10 04:00,5.4,109.40,2.16,1.14,36.00
2017-05-10 05:00,6.3,105.40,2.06,1.14,35.00
2017-05-10 06:00,5.7,104.40,2.20,1.32,32.00
2017-05-10 07:00,6.1,101.40,2.12,1.36,29.00
2017-05-10 08:00,5.9,100.40,2.49,1.27,30.00
2017-05-10 09:00,5.7,103.40,1.99,1.26,28.00
2017-05-10 10:00,6.1,100.40,1.86,1.20,28.00
2017-05-10 11:00,6.3,105.40,2.10,1.27,26.00
2017-05-10 12:00,5.9,108.40,1.93,1.20,28.00
2017-05-10 13:00,6.3,104.40,2.16,1.23,28.00
2017-05-10 14:00,5.7,107.40,1.83,1.03,32.00
2017-05-10 15:00,5.9,106.40,1.77,1.09,29.00
2017-05-10 16:00,5.9,107.40,1.90,1.11,28.00
2017-05-10 17:00,5.9,103.40,1.81,1.12,30.00
2017-05-10 18:00,6.1,106.40,1.62,0.91,33.00
2017-05-10 19:00,5.9,109.40,1.86,1.03,33.00
2017-05-10 20:00,5.7,109.40,1.58,1.03,31.00
2017-05-10 21:00,5.9,109.40,2.12,1.06,32.00
2017-05-10 22:00,6.3,113.40,1.52,1.00,32.00
2017-05-10 23:00,5.9,115.40,2.17,1.04,32.00
2017-05-11 00:00,6.3,115.40,1.42,0.92,35.00
2017-05-11 01:00,5.9,115.40,1.45,1.00,34.00
2017-05-11 02:00,5.9,115.40,1.73,0.99,31.00
2017-05-11 03:00,5.6,112.40,1.49,0.88,34.00
2017-05-11 04:00,5.9,114.40,1.44,0.86,32.00
2017-05-11 05:00,6.1,114.40,1.42,0.78,34.00
2017-05-11 06:00,5.7,114.40,1.17,0.82,34.00
2017-05-11 07:00,7.7,111.40,1.39,0.86,32.00
2017-05-11 08:00,8.0,112.40,1.50,0.80,34.00
2017-05-11 09:00,7.7,115.40,1.52,0.91,32.00
2017-05-11 10:00,5.7,118.40,1.15,0.80,35.00
2017-05-11 11:00,7.4,102.40,1.53,0.88,39.00
2017-05-11 12:00,5.6,105.40,1.69,0.83,36.00
2017-05-11 13:00,7.1,106.40,1.19,0.69,34.00
2017-05-11 14:00,7.7,114.40,0.87,0.56,37.00
2017-05-11 15:00,7.4,106.40,1.18,0.59,32.00
2017-05-11 16:00,7.1,108.40,0.90,0.57,34.00
2017-05-11 17:00,7.7,103.40,0.90,0.57,37.00
2017-05-11 18:00,5.9,107.40,0.91,0.62,38.00
2017-05-11 19:00,6.9,102.40,1.14,0.68,34.00
2017-05-11 20:00,7.1,95.40,1.02,0.67,35.00
2017-05-11 21:00,6.9,96.40,1.16,0.73,33.00
2017-05-11 22:00,5.7,96.40,1.17,0.77,32.00
2017-05-11 23:00,5.7,98.40,1.26,0.86,30.00
2017-05-12 00:00,5.4,95.40,1.48,0.83,30.00
2017-05-12 01:00,5.9,98.40,1.40,0.85,30.00
2017-05-12 02:00,5.4,95.40,1.31,0.81,30.00
2017-05-12 03:00,6.7,94.40,1.13,0.74,31.00
2017-05-12 04:00,5.6,95.40,1.13,0.82,29.00
2017-05-12 05:00,6.1,94.40,1.20,0.74,32.00
2017-05-12 06:00,5.7,94.40,1.17,0.71,33.00
2017-05-12 07:00,5.7,94.40,1.10,0.70,32.00
2017-05-12 08:00,5.9,95.40,1.02,0.69,32.00
2017-05-12 09:00,7.1,99.40,1.08,0.65,34.00
2017-05-12 10:00,4.9,102.40,1.03,0.56,35.00
2017-05-12 11:00,7.7,102.40,0.90,0.54,36.00
2017-05-12 12:00,7.1,105.40,0.83,0.53,38.00
2017-05-12 13:00,8.3,109.40,0.74,0.50,39.00
2017-05-12 14:00,8.3,107.40,0.75,0.45,40.00
2017-05-12 15:00,5.6,113.40,0.74,0.43,42.00
2017-05-12 16:00,8.3,106.40,0.68,0.48,42.00
2017-05-12 17:00,8.3,108.40,0.79,0.47,38.00
2017-05-12 18:00,7.4,103.40,0.67,0.42,40.00
2017-05-12 19:00,8.3,104.40,0.77,0.45,38.00
2017-05-12 20:00,8.0,98.40,0.69,0.44,41.00
2017-05-12 21:00,7.1,98.40,0.73,0.47,40.00
2017-05-12 22:00,7.4,96.40,0.83,0.50,42.00
2017-05-12 23:00,8.3,96.40,0.87,0.51,39.00
2017-05-13 00:00,8.0,99.40,0.77,0.51,38.00
2017-05-13 01:00,8.0,99.40,0.94,0.55,36.00
2017-05-13 02:00,6.3,96.40,0.78,0.50,38.00
2017-05-13 03:00,6.5,95.40,0.82,0.56,36.00
2017-05-13 04:00,7.7,100.40,0.91,0.55,35.00
2017-05-13 05:00,8.3,102.40,0.85,0.51,37.00
2017-05-13 06:00,5.9,100.40,0.88,0.48,36.00
2017-05-13 07:00,8.0,98.40,0.76,0.46,37.00
2017-05-13 08:00,8.3,101.40,0.79,0.47,36.00
2017-05-13 09:00,8.0,99.40,0.80,0.45,34.00
2017-05-13 10:00,8.3,97.40,0.81,0.46,33.00
2017-05-13 11:00,8.0,101.40,0.69,0.49,34.00
2017-05-13 12:00,8.3,100.40,0.85,0.48,34.00
2017-05-13 13:00,7.4,98.40,0.93,0.53,36.00
2017-05-13 14:00,6.7,104.40,0.96,0.51,35.00
2017-05-13 15:00,6.7,108.40,0.78,0.53,37.00
2017-05-13 16:00,8.0,108.40,0.86,0.55,36.00
2017-05-13 17:00,7.7,105.40,0.94,0.56,35.00